This is the latest recevied weather packets stored in our database for station/object IK2YOU-3. If no packets are shown the sender has not sent any weather packets the latest 10 day(s).
| Time | Temp. | Humidity | Pressure | Rain* | Wind** | Luminosity | Snow |
|---|---|---|---|---|---|---|---|
| 1778049845 | 14.44° C | 66% | 1006.1 hPa | 0 mm | - | 135 W/m² | - |
| 1778049245 | 13.89° C | 66% | 1006.3 hPa | 0 mm | - | 85 W/m² | - |
| 1778048649 | 13.89° C | 66% | 1006.4 hPa | 0 mm | - | 76 W/m² | - |
| 1778048045 | 13.89° C | 66% | 1006.4 hPa | 0 mm | - | 98 W/m² | - |
| 1778047444 | 13.89° C | 66% | 1006.5 hPa | 0 mm | - | 32 W/m² | - |
| 1778046972 | 13.89° C | 66% | 1006.4 hPa | 0.25 mm | - | 30 W/m² | - |
| 1778046244 | 13.89° C | 66% | 1006.5 hPa | 0.25 mm | - | 19 W/m² | - |
| 1778045645 | 13.89° C | 66% | 1006.5 hPa | 0.51 mm | - | 15 W/m² | - |
| 1778045044 | 13.89° C | 66% | 1006.2 hPa | 0.51 mm | - | 28 W/m² | - |
| 1778044445 | 13.89° C | 66% | 1006.4 hPa | 0.51 mm | - | 28 W/m² | - |
| 1778043858 | 13.89° C | 66% | 1006.5 hPa | 0.76 mm | - | 23 W/m² | - |
| 1778043254 | 13.89° C | 67% | 1006.7 hPa | 0.51 mm | - | 15 W/m² | - |
| 1778042647 | 13.89° C | 67% | 1006.8 hPa | 0.76 mm | - | 6 W/m² | - |
| 1778042045 | 13.89° C | 67% | 1006.8 hPa | 0.76 mm | - | 3 W/m² | - |
| 1778041575 | 13.89° C | 67% | 1007.2 hPa | 0.76 mm | - | 0 W/m² | - |
| 1778040971 | 13.89° C | 67% | 1007.2 hPa | 0.51 mm | - | 0 W/m² | - |
| 1778040372 | 13.89° C | 67% | 1007 hPa | 0.51 mm | - | 0 W/m² | - |
| 1778039641 | 13.89° C | 68% | 1007.1 hPa | 1.02 mm | - | 0 W/m² | - |
| 1778039037 | 13.89° C | 68% | 1007.2 hPa | 0.76 mm | - | 0 W/m² | - |
| 1778038565 | 13.89° C | 69% | 1007.3 hPa | 0.51 mm | - | 0 W/m² | - |
| 1778037836 | 13.89° C | 69% | 1007.3 hPa | 0.51 mm | - | 0 W/m² | - |
| 1778037366 | 13.89° C | 71% | 1007.2 hPa | 0.51 mm | - | 0 W/m² | - |
| 1778036636 | 13.89° C | 71% | 1007.3 hPa | 0.51 mm | - | 0 W/m² | - |
| 1778036036 | 13.89° C | 72% | 1007.5 hPa | 0 mm | - | 0 W/m² | - |
| 1778035564 | 13.89° C | 72% | 1007.7 hPa | 0 mm | - | 0 W/m² | - |
* Rain latest hour (hover to see other rain measurements)
** Current wind speed in m/s (hover to see current wind gust speed)